Location: Helsinki
(60.1699°N, 24.9384°E)
Time: 14:26:16
(UTC+02:00)

Tiros 1 - Pass Details

Date: 10 October 2022
Orbit: 629 x 662 km, 48.4° (Epoch: 07 December)

Event Time Altitude Azimuth Distance (km) Brightness Sun altitude
Rises 02:26:50 0° 257° (WSW) 2,995 - -34.3°
Reaches altitude 10° 02:30:00 10° 236° (SW) 2,078 - -34.2°
Maximum altitude 02:32:50 16° 199° (SSW) 1,719 - -34.0°
Drops below altitude 10° 02:35:40 10° 163° (SSE) 2,068 - -33.8°
Sets 02:38:48 0° 142° (SE) 2,971 - -33.7°
